Time,TemperatureF,DewpointF,PressureIn,WindDirection,WindDirectionDegrees,WindSpeedMPH,WindSpeedGustMPH,Humidity,HourlyPrecipIn,Conditions,Clouds,dailyrainin,SoftwareType,DateUTC
2013-04-19 00:03:00,48.0,-99.9,-100.00,SSW,209,24.0,29.0,-999,-99.99,,,-99.99,,2013-04-19 04:03:00,
2013-04-19 00:13:00,48.0,-99.9,-100.00,SSW,209,24.0,29.0,-999,-99.99,,,-99.99,,2013-04-19 04:13:00,
2013-04-19 00:24:00,48.0,-99.9,-100.00,SSW,209,24.0,29.0,-999,-99.99,,,-99.99,,2013-04-19 04:24:00,
2013-04-19 00:33:00,48.0,-99.9,-100.00,SSW,209,24.0,29.0,-999,-99.99,,,-99.99,,2013-04-19 04:33:00,
2013-04-19 00:43:00,48.0,-99.9,-100.00,SSW,209,24.0,29.0,-999,-99.99,,,-99.99,,2013-04-19 04:43:00,
2013-04-19 00:52:00,46.0,-99.9,-100.00,SSW,209,24.0,0.0,-999,-99.99,,,-99.99,,2013-04-19 04:52:00,
2013-04-19 01:03:00,46.0,-99.9,-100.00,SSW,209,24.0,0.0,-999,-99.99,,,-99.99,,2013-04-19 05:03:00,
2013-04-19 01:12:00,46.0,-99.9,-100.00,SSW,209,24.0,0.0,-999,-99.99,,,-99.99,,2013-04-19 05:12:00,
2013-04-19 01:22:00,46.0,-99.9,-100.00,SSW,209,24.0,0.0,-999,-99.99,,,-99.99,,2013-04-19 05:22:00,
2013-04-19 01:32:00,46.0,-99.9,-100.00,SSW,209,24.0,0.0,-999,-99.99,,,-99.99,,2013-04-19 05:32:00,
2013-04-19 01:42:00,44.0,-99.9,-100.00,SSW,207,19.0,24.0,-999,-99.99,,,-99.99,,2013-04-19 05:42:00,
2013-04-19 01:52:00,44.0,-99.9,-100.00,SSW,207,19.0,24.0,-999,-99.99,,,-99.99,,2013-04-19 05:52:00,
2013-04-19 02:02:00,44.0,-99.9,-100.00,SSW,207,19.0,24.0,-999,-99.99,,,-99.99,,2013-04-19 06:02:00,
2013-04-19 02:12:00,44.0,-99.9,-100.00,SSW,207,19.0,24.0,-999,-99.99,,,-99.99,,2013-04-19 06:12:00,
2013-04-19 02:22:00,43.0,-99.9,-100.00,SSW,209,17.0,25.0,-999,-99.99,,,-99.99,,2013-04-19 06:22:00,
2013-04-19 02:32:00,43.0,-99.9,-100.00,SSW,209,17.0,25.0,-999,-99.99,,,-99.99,,2013-04-19 06:32:00,
2013-04-19 02:42:00,43.0,-99.9,-100.00,SSW,209,17.0,25.0,-999,-99.99,,,-99.99,,2013-04-19 06:42:00,
2013-04-19 02:53:00,43.0,-99.9,-100.00,SSW,209,17.0,25.0,-999,-99.99,,,-99.99,,2013-04-19 06:53:00,
2013-04-19 03:02:00,43.0,-99.9,-100.00,SSW,209,17.0,25.0,-999,-99.99,,,-99.99,,2013-04-19 07:02:00,
2013-04-19 03:12:00,43.0,-99.9,-100.00,SW,215,24.0,29.0,-999,-99.99,,,-99.99,,2013-04-19 07:12:00,
2013-04-19 03:22:00,43.0,-99.9,-100.00,SW,215,24.0,29.0,-999,-99.99,,,-99.99,,2013-04-19 07:22:00,
2013-04-19 03:32:00,43.0,-99.9,-100.00,SW,215,24.0,29.0,-999,-99.99,,,-99.99,,2013-04-19 07:32:00,
2013-04-19 03:42:00,43.0,-99.9,-100.00,SW,215,24.0,29.0,-999,-99.99,,,-99.99,,2013-04-19 07:42:00,
2013-04-19 03:52:00,42.0,-99.9,-100.00,SW,218,23.0,0.0,-999,-99.99,,,-99.99,,2013-04-19 07:52:00,
2013-04-19 04:02:00,42.0,-99.9,-100.00,SW,220,23.0,29.0,-999,-99.99,,,-99.99,,2013-04-19 08:02:00,
2013-04-19 04:12:00,42.0,-99.9,-100.00,SW,220,23.0,29.0,-999,-99.99,,,-99.99,,2013-04-19 08:12:00,
2013-04-19 04:22:00,42.0,-99.9,-100.00,SW,220,23.0,29.0,-999,-99.99,,,-99.99,,2013-04-19 08:22:00,
2013-04-19 04:33:00,41.0,-99.9,-100.00,SW,219,32.0,0.0,-999,-99.99,,,-99.99,,2013-04-19 08:33:00,
2013-04-19 04:42:00,41.0,-99.9,-100.00,SW,219,32.0,0.0,-999,-99.99,,,-99.99,,2013-04-19 08:42:00,
2013-04-19 04:52:00,41.0,-99.9,-100.00,SW,219,32.0,0.0,-999,-99.99,,,-99.99,,2013-04-19 08:52:00,
2013-04-19 05:02:00,41.0,-99.9,-100.00,SW,219,32.0,0.0,-999,-99.99,,,-99.99,,2013-04-19 09:02:00,
2013-04-19 05:12:00,41.0,-99.9,-100.00,SW,219,32.0,0.0,-999,-99.99,,,-99.99,,2013-04-19 09:12:00,
2013-04-19 05:22:00,40.0,-99.9,-100.00,SW,214,23.0,31.0,-999,-99.99,,,-99.99,,2013-04-19 09:22:00,
2013-04-19 05:33:00,40.0,-99.9,-100.00,SW,218,26.0,0.0,-999,-99.99,,,-99.99,,2013-04-19 09:33:00,
2013-04-19 05:43:00,40.0,-99.9,-100.00,SW,218,26.0,0.0,-999,-99.99,,,-99.99,,2013-04-19 09:43:00,
2013-04-19 05:52:00,40.0,-99.9,-100.00,SW,218,26.0,0.0,-999,-99.99,,,-99.99,,2013-04-19 09:52:00,
2013-04-19 06:02:00,40.0,-99.9,-100.00,SW,218,26.0,0.0,-999,-99.99,,,-99.99,,2013-04-19 10:02:00,
2013-04-19 06:13:00,40.0,-99.9,-100.00,SW,214,28.0,29.0,-999,-99.99,,,-99.99,,2013-04-19 10:13:00,
2013-04-19 06:23:00,40.0,-99.9,-100.00,SW,214,28.0,29.0,-999,-99.99,,,-99.99,,2013-04-19 10:23:00,
2013-04-19 06:33:00,40.0,-99.9,-100.00,SSW,207,28.0,0.0,-999,-99.99,,,-99.99,,2013-04-19 10:33:00,
2013-04-19 06:42:00,40.0,-99.9,-100.00,SSW,207,28.0,0.0,-999,-99.99,,,-99.99,,2013-04-19 10:42:00,
2013-04-19 06:52:00,40.0,-99.9,-100.00,SSW,207,28.0,0.0,-999,-99.99,,,-99.99,,2013-04-19 10:52:00,
2013-04-19 07:03:00,40.0,-99.9,-100.00,SSW,207,28.0,0.0,-999,-99.99,,,-99.99,,2013-04-19 11:03:00,
2013-04-19 07:12:00,40.0,-99.9,-100.00,SW,216,26.0,30.0,-999,-99.99,,,-99.99,,2013-04-19 11:12:00,
2013-04-19 07:22:00,40.0,-99.9,-100.00,SW,216,26.0,30.0,-999,-99.99,,,-99.99,,2013-04-19 11:22:00,
2013-04-19 07:33:00,40.0,-99.9,-100.00,SW,216,26.0,30.0,-999,-99.99,,,-99.99,,2013-04-19 11:33:00,
2013-04-19 07:43:00,40.0,-99.9,-100.00,SW,216,28.0,0.0,-999,-99.99,,,-99.99,,2013-04-19 11:43:00,
2013-04-19 07:53:00,40.0,-99.9,-100.00,SW,216,28.0,0.0,-999,-99.99,,,-99.99,,2013-04-19 11:53:00,
2013-04-19 08:03:00,40.0,-99.9,-100.00,SW,216,28.0,0.0,-999,-99.99,,,-99.99,,2013-04-19 12:03:00,
2013-04-19 08:12:00,40.0,-99.9,-100.00,SW,216,28.0,0.0,-999,-99.99,,,-99.99,,2013-04-19 12:12:00,
2013-04-19 08:22:00,40.0,-99.9,-100.00,SW,219,25.0,29.0,-999,-99.99,,,-99.99,,2013-04-19 12:22:00,
2013-04-19 08:32:00,40.0,-99.9,-100.00,SW,217,29.0,0.0,-999,-99.99,,,-99.99,,2013-04-19 12:32:00,
2013-04-19 08:42:00,40.0,-99.9,-100.00,SW,217,29.0,0.0,-999,-99.99,,,-99.99,,2013-04-19 12:42:00,
2013-04-19 08:53:00,40.0,-99.9,-100.00,SW,217,29.0,0.0,-999,-99.99,,,-99.99,,2013-04-19 12:53:00,
2013-04-19 09:02:00,40.0,-99.9,-100.00,SW,217,29.0,0.0,-999,-99.99,,,-99.99,,2013-04-19 13:02:00,
2013-04-19 09:11:00,40.0,-99.9,-100.00,SW,217,29.0,0.0,-999,-99.99,,,-99.99,,2013-04-19 13:11:00,
2013-04-19 09:22:00,40.0,-99.9,-100.00,SSW,212,31.0,31.0,-999,-99.99,,,-99.99,,2013-04-19 13:22:00,
2013-04-19 09:32:00,40.0,-99.9,-100.00,SW,214,30.0,0.0,-999,-99.99,,,-99.99,,2013-04-19 13:32:00,
2013-04-19 09:42:00,40.0,-99.9,-100.00,SW,214,30.0,0.0,-999,-99.99,,,-99.99,,2013-04-19 13:42:00,
2013-04-19 09:52:00,40.0,-99.9,-100.00,SW,214,30.0,0.0,-999,-99.99,,,-99.99,,2013-04-19 13:52:00,
2013-04-19 10:02:00,40.0,-99.9,-100.00,SW,214,30.0,0.0,-999,-99.99,,,-99.99,,2013-04-19 14:02:00,
2013-04-19 10:12:00,40.0,-99.9,-100.00,SW,214,30.0,0.0,-999,-99.99,,,-99.99,,2013-04-19 14:12:00,
2013-04-19 10:22:00,40.0,-99.9,-100.00,SSW,203,32.0,32.0,-999,-99.99,,,-99.99,,2013-04-19 14:22:00,
2013-04-19 10:32:00,40.0,-99.9,-100.00,SSW,203,32.0,32.0,-999,-99.99,,,-99.99,,2013-04-19 14:32:00,
2013-04-19 10:43:00,39.0,-99.9,-100.00,SSW,213,32.0,41.0,-999,-99.99,,,-99.99,,2013-04-19 14:43:00,
2013-04-19 10:53:00,39.0,-99.9,-100.00,SSW,213,32.0,41.0,-999,-99.99,,,-99.99,,2013-04-19 14:53:00,
2013-04-19 11:02:00,39.0,-99.9,-100.00,SSW,213,32.0,41.0,-999,-99.99,,,-99.99,,2013-04-19 15:02:00,
2013-04-19 11:12:00,39.0,-99.9,-100.00,SSW,213,32.0,41.0,-999,-99.99,,,-99.99,,2013-04-19 15:12:00,
2013-04-19 11:22:00,39.0,-99.9,-100.00,SSW,213,32.0,41.0,-999,-99.99,,,-99.99,,2013-04-19 15:22:00,
2013-04-19 11:33:00,39.0,-99.9,-100.00,SSW,213,32.0,41.0,-999,-99.99,,,-99.99,,2013-04-19 15:33:00,
2013-04-19 11:43:00,39.0,-99.9,-100.00,SSW,206,33.0,41.0,-999,-99.99,,,-99.99,,2013-04-19 15:43:00,
2013-04-19 11:53:00,39.0,-99.9,-100.00,SSW,206,33.0,41.0,-999,-99.99,,,-99.99,,2013-04-19 15:53:00,
2013-04-19 12:03:00,39.0,-99.9,-100.00,SSW,206,33.0,41.0,-999,-99.99,,,-99.99,,2013-04-19 16:03:00,
2013-04-19 12:13:00,39.0,-99.9,-100.00,SSW,206,33.0,41.0,-999,-99.99,,,-99.99,,2013-04-19 16:13:00,
2013-04-19 12:23:00,39.0,-99.9,-100.00,SSW,206,33.0,41.0,-999,-99.99,,,-99.99,,2013-04-19 16:23:00,
2013-04-19 12:33:00,39.0,-99.9,-100.00,SSW,206,33.0,41.0,-999,-99.99,,,-99.99,,2013-04-19 16:33:00,
2013-04-19 12:43:00,40.0,-99.9,-100.00,SSW,210,34.0,34.0,-999,-99.99,,,-99.99,,2013-04-19 16:43:00,
2013-04-19 12:53:00,40.0,-99.9,-100.00,SSW,210,34.0,34.0,-999,-99.99,,,-99.99,,2013-04-19 16:53:00,
2013-04-19 13:02:00,40.0,-99.9,-100.00,SSW,210,34.0,34.0,-999,-99.99,,,-99.99,,2013-04-19 17:02:00,
2013-04-19 13:12:00,40.0,-99.9,-100.00,SSW,209,31.0,42.0,-999,-99.99,,,-99.99,,2013-04-19 17:12:00,
2013-04-19 13:22:00,40.0,-99.9,-100.00,SSW,209,31.0,42.0,-999,-99.99,,,-99.99,,2013-04-19 17:22:00,
2013-04-19 13:33:00,40.0,-99.9,-100.00,SSW,206,31.0,0.0,-999,-99.99,,,-99.99,,2013-04-19 17:33:00,
2013-04-19 13:43:00,40.0,-99.9,-100.00,SSW,206,31.0,0.0,-999,-99.99,,,-99.99,,2013-04-19 17:43:00,
2013-04-19 13:52:00,40.0,-99.9,-100.00,SSW,206,31.0,0.0,-999,-99.99,,,-99.99,,2013-04-19 17:52:00,
2013-04-19 14:02:00,40.0,-99.9,-100.00,SSW,206,31.0,0.0,-999,-99.99,,,-99.99,,2013-04-19 18:02:00,
2013-04-19 14:13:00,40.0,-99.9,-100.00,SSW,206,31.0,41.0,-999,-99.99,,,-99.99,,2013-04-19 18:13:00,
2013-04-19 14:23:00,40.0,-99.9,-100.00,SSW,206,31.0,41.0,-999,-99.99,,,-99.99,,2013-04-19 18:23:00,
2013-04-19 14:33:00,40.0,-99.9,-100.00,SSW,206,31.0,41.0,-999,-99.99,,,-99.99,,2013-04-19 18:33:00,
2013-04-19 14:43:00,40.0,-99.9,-100.00,SSW,206,32.0,0.0,-999,-99.99,,,-99.99,,2013-04-19 18:43:00,
2013-04-19 14:52:00,40.0,-99.9,-100.00,SSW,206,32.0,0.0,-999,-99.99,,,-99.99,,2013-04-19 18:52:00,
2013-04-19 15:02:00,40.0,-99.9,-100.00,SSW,206,32.0,0.0,-999,-99.99,,,-99.99,,2013-04-19 19:02:00,
2013-04-19 15:11:00,40.0,-99.9,-100.00,SSW,206,32.0,0.0,-999,-99.99,,,-99.99,,2013-04-19 19:11:00,
2013-04-19 15:22:00,40.0,-99.9,-100.00,SSW,206,37.0,45.0,-999,-99.99,,,-99.99,,2013-04-19 19:22:00,
2013-04-19 15:32:00,40.0,-99.9,-100.00,SSW,206,37.0,45.0,-999,-99.99,,,-99.99,,2013-04-19 19:32:00,
2013-04-19 15:42:00,40.0,-99.9,-100.00,SSW,204,34.0,0.0,-999,-99.99,,,-99.99,,2013-04-19 19:42:00,
2013-04-19 15:52:00,40.0,-99.9,-100.00,SSW,204,34.0,0.0,-999,-99.99,,,-99.99,,2013-04-19 19:52:00,
2013-04-19 16:02:00,40.0,-99.9,-100.00,SSW,204,34.0,0.0,-999,-99.99,,,-99.99,,2013-04-19 20:02:00,
2013-04-19 16:11:00,40.0,-99.9,-100.00,SSW,204,34.0,0.0,-999,-99.99,,,-99.99,,2013-04-19 20:11:00,
2013-04-19 16:22:00,40.0,-99.9,-100.00,SSW,203,32.0,33.0,-999,-99.99,,,-99.99,,2013-04-19 20:22:00,
2013-04-19 16:32:00,40.0,-99.9,-100.00,SSW,203,32.0,33.0,-999,-99.99,,,-99.99,,2013-04-19 20:32:00,
2013-04-19 16:42:00,40.0,-99.9,-100.00,SSW,203,32.0,33.0,-999,-99.99,,,-99.99,,2013-04-19 20:42:00,
2013-04-19 16:52:00,40.0,-99.9,-100.00,SSW,209,36.0,41.0,-999,-99.99,,,-99.99,,2013-04-19 20:52:00,
2013-04-19 17:01:00,40.0,-99.9,-100.00,SSW,209,36.0,41.0,-999,-99.99,,,-99.99,,2013-04-19 21:01:00,
2013-04-19 17:12:00,40.0,-99.9,-100.00,SSW,209,36.0,41.0,-999,-99.99,,,-99.99,,2013-04-19 21:12:00,
2013-04-19 17:22:00,40.0,-99.9,-100.00,SSW,209,36.0,41.0,-999,-99.99,,,-99.99,,2013-04-19 21:22:00,
2013-04-19 17:32:00,39.0,-99.9,-100.00,SSW,208,33.0,0.0,-999,-99.99,,,-99.99,,2013-04-19 21:32:00,
2013-04-19 17:43:00,39.0,-99.9,-100.00,SSW,208,33.0,0.0,-999,-99.99,,,-99.99,,2013-04-19 21:43:00,
2013-04-19 17:53:00,39.0,-99.9,-100.00,SSW,207,33.0,41.0,-999,-99.99,,,-99.99,,2013-04-19 21:53:00,
2013-04-19 18:03:00,39.0,-99.9,-100.00,SSW,207,33.0,41.0,-999,-99.99,,,-99.99,,2013-04-19 22:03:00,
2013-04-19 18:13:00,39.0,-99.9,-100.00,SSW,207,33.0,41.0,-999,-99.99,,,-99.99,,2013-04-19 22:13:00,
2013-04-19 18:23:00,39.0,-99.9,-100.00,SSW,207,33.0,41.0,-999,-99.99,,,-99.99,,2013-04-19 22:23:00,
2013-04-19 18:33:00,39.0,-99.9,-100.00,SSW,207,33.0,41.0,-999,-99.99,,,-99.99,,2013-04-19 22:33:00,
2013-04-19 18:42:00,39.0,-99.9,-100.00,SSW,207,33.0,41.0,-999,-99.99,,,-99.99,,2013-04-19 22:42:00,
2013-04-19 18:52:00,40.0,-99.9,-100.00,SSW,211,29.0,0.0,-999,-99.99,,,-99.99,,2013-04-19 22:52:00,
2013-04-19 19:03:00,40.0,-99.9,-100.00,SSW,211,29.0,34.0,-999,-99.99,,,-99.99,,2013-04-19 23:03:00,
2013-04-19 19:11:00,40.0,-99.9,-100.00,SSW,211,29.0,34.0,-999,-99.99,,,-99.99,,2013-04-19 23:11:00,
2013-04-19 19:22:00,40.0,-99.9,-100.00,SSW,211,29.0,34.0,-999,-99.99,,,-99.99,,2013-04-19 23:22:00,
2013-04-19 19:32:00,40.0,-99.9,-100.00,SSW,211,29.0,34.0,-999,-99.99,,,-99.99,,2013-04-19 23:32:00,
2013-04-19 19:42:00,40.0,-99.9,-100.00,SSW,211,29.0,34.0,-999,-99.99,,,-99.99,,2013-04-19 23:42:00,
2013-04-19 19:53:00,40.0,-99.9,-100.00,SSW,211,29.0,34.0,-999,-99.99,,,-99.99,,2013-04-19 23:53:00,
2013-04-19 20:02:00,39.0,-99.9,-100.00,SSW,212,31.0,33.0,-999,-99.99,,,-99.99,,2013-04-20 00:02:00,
2013-04-19 20:12:00,39.0,-99.9,-100.00,SSW,212,31.0,33.0,-999,-99.99,,,-99.99,,2013-04-20 00:12:00,
2013-04-19 20:22:00,39.0,-99.9,-100.00,SSW,212,31.0,33.0,-999,-99.99,,,-99.99,,2013-04-20 00:22:00,
2013-04-19 20:32:00,39.0,-99.9,-100.00,SSW,212,31.0,33.0,-999,-99.99,,,-99.99,,2013-04-20 00:32:00,
2013-04-19 20:42:00,39.0,-99.9,-100.00,SSW,212,31.0,33.0,-999,-99.99,,,-99.99,,2013-04-20 00:42:00,
2013-04-19 20:52:00,38.0,-99.9,-100.00,SW,219,30.0,30.0,-999,-99.99,,,-99.99,,2013-04-20 00:52:00,
2013-04-19 21:02:00,38.0,-99.9,-100.00,SW,219,30.0,30.0,-999,-99.99,,,-99.99,,2013-04-20 01:02:00,
2013-04-19 21:11:00,38.0,-99.9,-100.00,SW,219,30.0,30.0,-999,-99.99,,,-99.99,,2013-04-20 01:11:00,
2013-04-19 21:21:00,38.0,-99.9,-100.00,SW,219,30.0,30.0,-999,-99.99,,,-99.99,,2013-04-20 01:21:00,
2013-04-19 21:32:00,38.0,-99.9,-100.00,SW,220,25.0,0.0,-999,-99.99,,,-99.99,,2013-04-20 01:32:00,
2013-04-19 21:42:00,38.0,-99.9,-100.00,SW,220,25.0,0.0,-999,-99.99,,,-99.99,,2013-04-20 01:42:00,
2013-04-19 21:52:00,38.0,-99.9,-100.00,SW,220,25.0,0.0,-999,-99.99,,,-99.99,,2013-04-20 01:52:00,
2013-04-19 22:02:00,38.0,-99.9,-100.00,SW,222,24.0,29.0,-999,-99.99,,,-99.99,,2013-04-20 02:02:00,
2013-04-19 22:11:00,38.0,-99.9,-100.00,SW,222,24.0,29.0,-999,-99.99,,,-99.99,,2013-04-20 02:11:00,
2013-04-19 22:22:00,38.0,-99.9,-100.00,SW,222,24.0,29.0,-999,-99.99,,,-99.99,,2013-04-20 02:22:00,
2013-04-19 22:32:00,38.0,-99.9,-100.00,SW,222,24.0,29.0,-999,-99.99,,,-99.99,,2013-04-20 02:32:00,
2013-04-19 22:42:00,36.0,-99.9,-100.00,WSW,238,25.0,0.0,-999,-99.99,,,-99.99,,2013-04-20 02:42:00,
2013-04-19 22:52:00,36.0,-99.9,-100.00,WSW,238,25.0,0.0,-999,-99.99,,,-99.99,,2013-04-20 02:52:00,
2013-04-19 23:01:00,36.0,-99.9,-100.00,WSW,238,25.0,0.0,-999,-99.99,,,-99.99,,2013-04-20 03:01:00,
2013-04-19 23:11:00,36.0,-99.9,-100.00,WSW,238,25.0,0.0,-999,-99.99,,,-99.99,,2013-04-20 03:11:00,
2013-04-19 23:22:00,36.0,-99.9,-100.00,WSW,238,25.0,0.0,-999,-99.99,,,-99.99,,2013-04-20 03:22:00,
2013-04-19 23:33:00,36.0,-99.9,-100.00,WSW,238,25.0,0.0,-999,-99.99,,,-99.99,,2013-04-20 03:33:00,
2013-04-19 23:43:00,37.0,-99.9,-100.00,WSW,240,20.0,27.0,-999,-99.99,,,-99.99,,2013-04-20 03:43:00,
2013-04-19 23:53:00,37.0,-99.9,-100.00,WSW,240,20.0,27.0,-999,-99.99,,,-99.99,,2013-04-20 03:53:00,